WZZ25EX EPWA-LEZL

Flight info

Callsign WZZ25EX
Flight time 3h 19m
Altitude 38000
Route SOXER DCT VAMPU DCT BAXIS DCT UVIVI DCT AGALU N869 TOMTI DCT ASTEL DCT OKG DCT AMOSA DCT DKB DCT TEDGO N869 NATOR DCT LUTIX DCT BENOT DCT NEMOS DCT NINTU DCT REPSI DCT LERGA DCT MINSO DCT NARAK DCT AGN DCT MAQAB DCT TIVLI DCT ZAR DCT CJN DCT PALIO DCT GOTOR DCT KAMPO DCT MONTO DCT MOLIN DCT HIJ
Aircraft A21N/M-SDE1E2E3FGIJ1J4RWXY/LB1

Departure

Time 2026-03-24 10:42
Airport Warsaw Chopin Airport (EPWA)

Arrival

Time 2026-03-24 14:01
Airport Seville Airport (LEZL)
Time Latitude Longitude Altitude Speed Heading
2026-03-24 10:08 52.17278 20.96601 354 ft 0 kts 207°
2026-03-24 10:13 52.17279 20.96601 344 ft 0 kts 207°
2026-03-24 10:18 52.17279 20.96602 371 ft 0 kts 207°
2026-03-24 10:32 52.17274 20.96598 344 ft 4 kts 208°
2026-03-24 10:33 52.17244 20.96570 347 ft 6 kts 210°
2026-03-24 10:33 52.17204 20.96558 347 ft 7 kts 171°
2026-03-24 10:33 52.17161 20.96598 346 ft 8 kts 150°
2026-03-24 10:33 52.17111 20.96643 344 ft 9 kts 151°
2026-03-24 10:34 52.17054 20.96692 348 ft 10 kts 153°
2026-03-24 10:34 52.16990 20.96747 347 ft 11 kts 152°
2026-03-24 10:34 52.16919 20.96810 349 ft 13 kts 152°
2026-03-24 10:34 52.16836 20.96883 344 ft 15 kts 152°
2026-03-24 10:35 52.16757 20.96952 344 ft 0 kts 152°
2026-03-24 10:35 52.16751 20.96958 349 ft 5 kts 152°
2026-03-24 10:35 52.16678 20.97029 347 ft 17 kts 133°
2026-03-24 10:35 52.16623 20.97209 347 ft 18 kts 115°
2026-03-24 10:36 52.16575 20.97369 344 ft 8 kts 116°
2026-03-24 10:36 52.16548 20.97465 350 ft 10 kts 114°
2026-03-24 10:36 52.16517 20.97584 348 ft 13 kts 117°
2026-03-24 10:36 52.16473 20.97721 350 ft 15 kts 114°
2026-03-24 10:37 52.16431 20.97882 350 ft 16 kts 115°
2026-03-24 10:37 52.16389 20.98030 346 ft 11 kts 115°
2026-03-24 10:37 52.16356 20.98153 351 ft 13 kts 114°
2026-03-24 10:37 52.16314 20.98294 350 ft 15 kts 116°
2026-03-24 10:38 52.16266 20.98443 348 ft 13 kts 142°
2026-03-24 10:38 52.16205 20.98450 344 ft 5 kts 205°
2026-03-24 10:40 52.16198 20.98446 344 ft 3 kts 202°
2026-03-24 10:40 52.16170 20.98424 343 ft 6 kts 206°
2026-03-24 10:41 52.16123 20.98380 348 ft 10 kts 229°
2026-03-24 10:41 52.16129 20.98302 348 ft 0 kts 294°
2026-03-24 10:41 52.16130 20.98298 347 ft 3 kts 294°
2026-03-24 10:41 52.16231 20.97881 349 ft 72 kts 295°
2026-03-24 10:42 52.16541 20.96824 347 ft 132 kts 294°
2026-03-24 10:42 52.16964 20.95327 656 ft 146 kts 294°
2026-03-24 10:42 52.17397 20.93835 1225 ft 146 kts 293°
2026-03-24 10:42 52.17815 20.92266 1556 ft 160 kts 292°
2026-03-24 10:43 52.18289 20.90498 1992 ft 176 kts 287°
2026-03-24 10:43 52.18138 20.86153 3183 ft 210 kts 261°
2026-03-24 10:43 52.17991 20.83717 3783 ft 232 kts 268°
2026-03-24 10:44 52.18220 20.80969 4291 ft 257 kts 281°
2026-03-24 10:44 52.18639 20.78095 5212 ft 263 kts 282°
2026-03-24 10:44 52.19066 20.75185 6227 ft 264 kts 283°
2026-03-24 10:44 52.19480 20.72249 7207 ft 267 kts 280°
2026-03-24 10:45 52.19513 20.69183 8116 ft 272 kts 259°
2026-03-24 10:45 52.18957 20.66257 9052 ft 277 kts 250°
2026-03-24 10:45 52.18269 20.63284 9966 ft 283 kts 250°
2026-03-24 10:45 52.17556 20.60189 10544 ft 302 kts 250°
2026-03-24 10:46 52.16805 20.56880 11024 ft 320 kts 250°
2026-03-24 10:46 52.16030 20.53439 11836 ft 326 kts 250°
2026-03-24 10:46 52.15248 20.49891 12755 ft 330 kts 252°
2026-03-24 10:46 52.14555 20.46357 13654 ft 334 kts 253°
2026-03-24 10:47 52.13854 20.42672 14461 ft 339 kts 253°
2026-03-24 10:47 52.13155 20.38986 15272 ft 342 kts 253°
2026-03-24 10:47 52.12459 20.35326 16085 ft 345 kts 253°
2026-03-24 10:47 52.11744 20.31576 16876 ft 349 kts 253°
2026-03-24 10:48 52.11017 20.27779 17584 ft 355 kts 253°
2026-03-24 10:48 52.10277 20.23927 18307 ft 360 kts 253°
2026-03-24 10:48 52.09523 20.20016 18972 ft 364 kts 253°
2026-03-24 10:48 52.08764 20.16074 19613 ft 368 kts 253°
2026-03-24 10:49 52.07994 20.12086 20242 ft 372 kts 252°
2026-03-24 10:49 52.07213 20.08055 20848 ft 376 kts 252°
2026-03-24 10:49 52.06421 20.03979 21451 ft 380 kts 252°
2026-03-24 10:49 52.05619 19.99858 22035 ft 384 kts 252°
2026-03-24 10:50 52.04809 19.95704 22616 ft 389 kts 252°
2026-03-24 10:50 52.03953 19.91525 23240 ft 392 kts 251°
2026-03-24 10:50 52.03051 19.87331 23832 ft 395 kts 250°
2026-03-24 10:50 52.02135 19.83103 24303 ft 399 kts 250°
2026-03-24 10:51 52.01207 19.78829 24746 ft 404 kts 250°
2026-03-24 10:51 52.00267 19.74500 25202 ft 408 kts 250°
2026-03-24 10:51 51.99320 19.70152 25773 ft 408 kts 250°
2026-03-24 10:51 51.98371 19.65806 26294 ft 411 kts 250°
2026-03-24 10:52 51.97410 19.61418 26706 ft 415 kts 250°
2026-03-24 10:52 51.96436 19.56974 27066 ft 421 kts 249°
2026-03-24 10:52 51.95453 19.52491 27486 ft 424 kts 249°
2026-03-24 10:52 51.94460 19.47979 28004 ft 425 kts 249°
2026-03-24 10:53 51.93467 19.43475 28517 ft 425 kts 249°
2026-03-24 10:53 51.92468 19.38952 28910 ft 429 kts 249°
2026-03-24 10:53 51.91457 19.34388 29291 ft 432 kts 249°
2026-03-24 10:53 51.90436 19.29792 29693 ft 435 kts 249°
2026-03-24 10:54 51.89409 19.25177 30092 ft 437 kts 249°
2026-03-24 10:54 51.88374 19.20537 30444 ft 439 kts 249°
2026-03-24 10:54 51.87334 19.15881 30781 ft 442 kts 249°
2026-03-24 10:54 51.86286 19.11196 31108 ft 444 kts 249°
2026-03-24 10:55 51.85583 19.08013 31315 ft 446 kts 249°
2026-03-24 10:55 51.84551 19.03267 31644 ft 448 kts 249°
2026-03-24 10:55 51.83515 18.98510 31974 ft 450 kts 249°
2026-03-24 10:55 51.82470 18.93729 32280 ft 452 kts 249°
2026-03-24 10:56 51.81418 18.88938 32580 ft 454 kts 248°
2026-03-24 10:56 51.80358 18.84132 32924 ft 455 kts 248°
2026-03-24 10:56 51.79311 18.79391 33283 ft 454 kts 248°
2026-03-24 10:56 51.78251 18.74594 33692 ft 453 kts 248°
2026-03-24 10:57 51.77191 18.69822 34034 ft 452 kts 248°
2026-03-24 10:57 51.76129 18.65040 34339 ft 452 kts 248°
2026-03-24 10:57 51.75066 18.60269 34589 ft 452 kts 248°
2026-03-24 10:57 51.74001 18.55498 34835 ft 452 kts 248°
2026-03-24 10:58 51.72933 18.50731 35071 ft 452 kts 248°
2026-03-24 10:58 51.71861 18.45951 35306 ft 453 kts 248°
2026-03-24 10:58 51.70790 18.41187 35547 ft 453 kts 248°
2026-03-24 10:58 51.69715 18.36414 35778 ft 453 kts 248°
2026-03-24 10:59 51.68639 18.31649 35986 ft 453 kts 248°
2026-03-24 10:59 51.67557 18.26868 36190 ft 454 kts 248°
2026-03-24 10:59 51.66475 18.22099 36420 ft 454 kts 248°
2026-03-24 10:59 51.65390 18.17329 36630 ft 454 kts 248°
2026-03-24 11:00 51.64303 18.12558 36856 ft 453 kts 248°
2026-03-24 11:00 51.63398 18.08595 37034 ft 453 kts 248°
2026-03-24 11:00 51.62308 18.03831 37251 ft 453 kts 248°
2026-03-24 11:00 51.61217 17.99074 37464 ft 453 kts 248°
2026-03-24 11:01 51.60125 17.94325 37643 ft 453 kts 248°
2026-03-24 11:01 51.59027 17.89567 37835 ft 453 kts 249°
2026-03-24 11:01 51.57928 17.84807 38002 ft 454 kts 249°
2026-03-24 11:01 51.56830 17.80052 38162 ft 454 kts 249°
2026-03-24 11:02 51.55730 17.75297 38206 ft 454 kts 249°
2026-03-24 11:02 51.53522 17.65802 38178 ft 454 kts 249°
2026-03-24 11:03 51.51306 17.56306 38176 ft 454 kts 249°
2026-03-24 11:03 51.49081 17.46819 38177 ft 454 kts 249°
2026-03-24 11:04 51.46846 17.37334 38167 ft 454 kts 249°
2026-03-24 11:04 51.44604 17.27864 38169 ft 454 kts 249°
2026-03-24 11:05 51.42354 17.18411 38166 ft 454 kts 249°
2026-03-24 11:05 51.40092 17.08951 38179 ft 454 kts 249°
2026-03-24 11:06 51.37833 16.99524 38181 ft 454 kts 249°
2026-03-24 11:06 51.35559 16.90082 38182 ft 454 kts 249°
2026-03-24 11:07 51.33279 16.80659 38186 ft 454 kts 249°
2026-03-24 11:07 51.31000 16.71280 38184 ft 455 kts 249°
2026-03-24 11:08 51.28704 16.61872 38184 ft 455 kts 249°
2026-03-24 11:08 51.26397 16.52465 38178 ft 455 kts 249°
2026-03-24 11:09 51.24086 16.43068 38173 ft 455 kts 249°
2026-03-24 11:09 51.21761 16.33670 38169 ft 455 kts 249°
2026-03-24 11:10 51.19436 16.24294 38171 ft 455 kts 249°
2026-03-24 11:10 51.17101 16.14926 38168 ft 455 kts 250°
2026-03-24 11:11 51.14754 16.05559 38168 ft 455 kts 250°
2026-03-24 11:11 51.12406 15.96212 38172 ft 455 kts 250°
2026-03-24 11:12 51.10045 15.86863 38168 ft 455 kts 250°
2026-03-24 11:12 51.07678 15.77525 38165 ft 455 kts 250°
2026-03-24 11:13 51.05306 15.68201 38171 ft 455 kts 250°
2026-03-24 11:13 51.02924 15.58879 38166 ft 455 kts 250°
2026-03-24 11:14 51.00531 15.49565 38176 ft 455 kts 250°
2026-03-24 11:14 50.98132 15.40267 38172 ft 455 kts 250°
2026-03-24 11:15 50.95826 15.31367 38176 ft 456 kts 250°
2026-03-24 11:15 50.93777 15.21876 38173 ft 454 kts 255°
2026-03-24 11:16 50.91841 15.12349 38173 ft 454 kts 255°
2026-03-24 11:16 50.89894 15.02823 38169 ft 454 kts 255°
2026-03-24 11:17 50.87940 14.93317 38177 ft 454 kts 255°
2026-03-24 11:17 50.85785 14.83900 38173 ft 457 kts 248°
2026-03-24 11:18 50.82984 14.74869 38175 ft 458 kts 246°
2026-03-24 11:18 50.80158 14.65853 38181 ft 458 kts 246°
2026-03-24 11:19 50.77335 14.56835 38181 ft 458 kts 246°
2026-03-24 11:19 50.74501 14.47811 38170 ft 458 kts 247°
2026-03-24 11:20 50.71663 14.38804 38182 ft 459 kts 247°
2026-03-24 11:20 50.68814 14.29804 38178 ft 459 kts 247°
2026-03-24 11:21 50.65960 14.20813 38181 ft 459 kts 247°
2026-03-24 11:21 50.63094 14.11820 38174 ft 459 kts 247°
2026-03-24 11:22 50.60218 14.02823 38177 ft 460 kts 247°
2026-03-24 11:22 50.57336 13.93842 38169 ft 460 kts 247°
2026-03-24 11:23 50.54448 13.84875 38175 ft 460 kts 247°
2026-03-24 11:23 50.51545 13.75910 37861 ft 461 kts 251°
2026-03-24 11:23 50.50093 13.71421 38032 ft 461 kts 251°
2026-03-24 11:24 50.48636 13.66927 38132 ft 464 kts 251°
2026-03-24 11:24 50.45690 13.57884 38181 ft 465 kts 251°
2026-03-24 11:25 50.42737 13.48854 38179 ft 466 kts 251°
2026-03-24 11:25 50.39832 13.39999 38188 ft 466 kts 251°
2026-03-24 11:26 50.36862 13.30979 38191 ft 466 kts 251°
2026-03-24 11:26 50.33890 13.21978 38192 ft 466 kts 251°
2026-03-24 11:27 50.30901 13.12963 38202 ft 466 kts 251°
2026-03-24 11:27 50.27911 13.03976 38185 ft 466 kts 251°
2026-03-24 11:28 50.24909 12.94989 38198 ft 466 kts 251°
2026-03-24 11:28 50.21903 12.86023 38200 ft 466 kts 251°
2026-03-24 11:29 50.18892 12.77066 38198 ft 466 kts 251°
2026-03-24 11:29 50.15873 12.68123 38202 ft 466 kts 251°
2026-03-24 11:30 50.12852 12.59200 38205 ft 466 kts 251°
2026-03-24 11:30 50.09815 12.50268 38207 ft 466 kts 251°
2026-03-24 11:31 50.06775 12.41356 38210 ft 466 kts 251°
2026-03-24 11:31 50.03748 12.32439 38215 ft 466 kts 251°
2026-03-24 11:32 50.00724 12.23512 38211 ft 466 kts 251°
2026-03-24 11:32 49.96168 12.10149 38214 ft 467 kts 251°
2026-03-24 11:33 49.93123 12.01254 38215 ft 467 kts 250°
2026-03-24 11:33 49.90068 11.92365 38211 ft 466 kts 250°
2026-03-24 11:34 49.87031 11.83556 38208 ft 466 kts 250°
2026-03-24 11:34 49.84464 11.76135 38210 ft 466 kts 250°
2026-03-24 11:35 49.81392 11.67288 38210 ft 466 kts 250°
2026-03-24 11:35 49.78318 11.58456 38208 ft 466 kts 250°
2026-03-24 11:36 49.74811 11.48411 38221 ft 466 kts 250°
2026-03-24 11:36 49.72224 11.41036 38223 ft 466 kts 250°
2026-03-24 11:37 49.69116 11.32258 38221 ft 466 kts 250°
2026-03-24 11:37 49.66008 11.23466 38218 ft 466 kts 250°
2026-03-24 11:38 49.62919 11.14698 38225 ft 466 kts 250°
2026-03-24 11:38 49.59799 11.05914 38227 ft 466 kts 250°
2026-03-24 11:39 49.56676 10.97151 38229 ft 466 kts 249°
2026-03-24 11:39 49.53547 10.88410 38224 ft 466 kts 249°
2026-03-24 11:40 49.50120 10.79886 38221 ft 478 kts 237°
2026-03-24 11:40 49.45488 10.72410 38219 ft 484 kts 232°
2026-03-24 11:41 49.40747 10.65072 38208 ft 483 kts 232°
2026-03-24 11:41 49.36044 10.57714 38209 ft 482 kts 232°
2026-03-24 11:42 49.31345 10.50359 38220 ft 482 kts 232°
2026-03-24 11:42 49.26642 10.43026 38227 ft 483 kts 232°
2026-03-24 11:43 49.21930 10.35701 38215 ft 483 kts 232°
2026-03-24 11:43 49.17241 10.28429 38220 ft 484 kts 232°
2026-03-24 11:44 49.12681 10.20857 38233 ft 478 kts 238°
2026-03-24 11:44 49.08548 10.13005 38236 ft 477 kts 238°
2026-03-24 11:45 49.04394 10.05117 38225 ft 477 kts 238°
2026-03-24 11:45 49.00220 9.97244 38228 ft 477 kts 238°
2026-03-24 11:46 48.96041 9.89387 38221 ft 477 kts 238°
2026-03-24 11:46 48.91858 9.81541 38225 ft 477 kts 238°
2026-03-24 11:47 48.87672 9.73716 38223 ft 477 kts 238°
2026-03-24 11:47 48.83475 9.65899 38211 ft 477 kts 237°
2026-03-24 11:48 48.79273 9.58089 38217 ft 477 kts 237°
2026-03-24 11:48 48.75076 9.50313 38228 ft 477 kts 237°
2026-03-24 11:49 48.70865 9.42530 38228 ft 477 kts 237°
2026-03-24 11:49 48.66654 9.34771 38230 ft 477 kts 237°
2026-03-24 11:50 48.62437 9.27021 38235 ft 476 kts 238°
2026-03-24 11:50 48.58561 9.18997 38232 ft 473 kts 242°
2026-03-24 11:51 48.54750 9.10892 38226 ft 473 kts 242°
2026-03-24 11:51 48.50934 9.02822 38224 ft 473 kts 241°
2026-03-24 11:52 48.47100 8.94742 38227 ft 473 kts 241°
2026-03-24 11:52 48.43268 8.86693 38226 ft 473 kts 241°
2026-03-24 11:53 48.39434 8.78662 38221 ft 473 kts 241°
2026-03-24 11:53 48.35592 8.70634 38226 ft 473 kts 241°
2026-03-24 11:54 48.31742 8.62618 38233 ft 473 kts 241°
2026-03-24 11:54 48.27885 8.54610 38231 ft 473 kts 241°
2026-03-24 11:55 48.24027 8.46624 38234 ft 473 kts 241°
2026-03-24 11:55 48.20162 8.38645 38228 ft 472 kts 240°
2026-03-24 11:56 48.15858 8.31131 38228 ft 485 kts 225°
2026-03-24 11:56 48.10215 8.25438 38257 ft 491 kts 217°
2026-03-24 11:57 48.04437 8.19993 38239 ft 491 kts 217°
2026-03-24 11:57 47.98695 8.14489 38242 ft 490 kts 217°
2026-03-24 11:58 47.92960 8.08987 38233 ft 490 kts 217°
2026-03-24 11:58 47.87219 8.03497 38238 ft 490 kts 217°
2026-03-24 11:59 47.81472 7.98016 38221 ft 490 kts 217°
2026-03-24 11:59 47.75727 7.92549 38239 ft 491 kts 217°
2026-03-24 12:00 47.69970 7.87089 38228 ft 491 kts 217°
2026-03-24 12:00 47.64213 7.81643 38254 ft 491 kts 217°
2026-03-24 12:01 47.58443 7.76202 38265 ft 491 kts 216°
2026-03-24 12:01 47.52715 7.70813 38252 ft 491 kts 216°
2026-03-24 12:02 47.49983 7.68250 38256 ft 491 kts 216°
2026-03-24 12:02 47.44258 7.62880 38251 ft 491 kts 216°
2026-03-24 12:03 47.38482 7.57481 38241 ft 492 kts 216°
2026-03-24 12:03 47.32700 7.52090 38259 ft 491 kts 216°
2026-03-24 12:04 47.26924 7.46712 38258 ft 492 kts 216°
2026-03-24 12:04 47.21124 7.41331 38258 ft 494 kts 216°
2026-03-24 12:05 47.15639 7.35381 38264 ft 485 kts 231°
2026-03-24 12:05 47.11393 7.27826 38271 ft 479 kts 238°
2026-03-24 12:06 47.07288 7.20126 38255 ft 479 kts 237°
2026-03-24 12:06 47.03131 7.12486 38239 ft 479 kts 237°
2026-03-24 12:07 46.98963 7.04867 38251 ft 479 kts 237°
2026-03-24 12:07 46.94791 6.97259 38254 ft 479 kts 237°
2026-03-24 12:08 46.90611 6.89664 38256 ft 479 kts 237°
2026-03-24 12:08 46.86424 6.82072 38261 ft 479 kts 236°
2026-03-24 12:09 46.82229 6.74497 38256 ft 480 kts 236°
2026-03-24 12:09 46.78028 6.66932 38261 ft 480 kts 236°
2026-03-24 12:10 46.73821 6.59371 38259 ft 480 kts 236°
2026-03-24 12:10 46.69612 6.51829 38249 ft 480 kts 236°
2026-03-24 12:11 46.65393 6.44290 38254 ft 480 kts 236°
2026-03-24 12:11 46.61162 6.36749 38253 ft 481 kts 236°
2026-03-24 12:12 46.56922 6.29218 38251 ft 481 kts 236°
2026-03-24 12:12 46.52686 6.21719 38254 ft 481 kts 236°
2026-03-24 12:13 46.48431 6.14195 38254 ft 481 kts 236°
2026-03-24 12:13 46.44175 6.06707 38262 ft 481 kts 236°
2026-03-24 12:14 46.39915 5.99221 38255 ft 481 kts 235°
2026-03-24 12:14 46.35654 5.91746 38253 ft 482 kts 235°
2026-03-24 12:15 46.31382 5.84279 38253 ft 482 kts 235°
2026-03-24 12:15 46.27109 5.76823 38256 ft 482 kts 235°
2026-03-24 12:16 46.22852 5.69421 38247 ft 481 kts 235°
2026-03-24 12:16 46.18566 5.61989 38251 ft 481 kts 235°
2026-03-24 12:17 46.14339 5.54516 38265 ft 479 kts 239°
2026-03-24 12:17 46.10546 5.46643 38256 ft 478 kts 240°
2026-03-24 12:18 46.06777 5.38767 38258 ft 478 kts 240°
2026-03-24 12:18 46.02992 5.30895 38258 ft 478 kts 240°
2026-03-24 12:19 45.99196 5.23044 38267 ft 478 kts 240°
2026-03-24 12:19 45.95397 5.15195 38274 ft 478 kts 240°
2026-03-24 12:20 45.92209 5.08620 38275 ft 478 kts 240°
2026-03-24 12:20 45.88399 5.00791 38281 ft 478 kts 240°
2026-03-24 12:21 45.84586 4.92973 38283 ft 478 kts 240°
2026-03-24 12:21 45.80762 4.85173 38284 ft 478 kts 240°
2026-03-24 12:22 45.76939 4.77364 38278 ft 479 kts 239°
2026-03-24 12:22 45.73102 4.69571 38279 ft 478 kts 239°
2026-03-24 12:23 45.69263 4.61790 38272 ft 478 kts 239°
2026-03-24 12:23 45.65421 4.54023 38289 ft 478 kts 239°
2026-03-24 12:24 45.61582 4.46282 38291 ft 478 kts 239°
2026-03-24 12:24 45.57730 4.38542 38284 ft 477 kts 239°
2026-03-24 12:25 45.53883 4.30824 38284 ft 478 kts 239°
2026-03-24 12:25 45.50023 4.23117 38291 ft 477 kts 239°
2026-03-24 12:26 45.46160 4.15421 38283 ft 477 kts 239°
2026-03-24 12:26 45.42318 4.07781 38269 ft 477 kts 239°
2026-03-24 12:27 45.38417 4.00060 38268 ft 477 kts 238°
2026-03-24 12:27 45.34571 3.92453 38256 ft 477 kts 238°
2026-03-24 12:28 45.30690 3.84808 38254 ft 477 kts 238°
2026-03-24 12:28 45.26797 3.77153 38253 ft 478 kts 238°
2026-03-24 12:29 45.22975 3.69457 38262 ft 477 kts 239°
2026-03-24 12:29 45.19179 3.61744 38256 ft 477 kts 239°
2026-03-24 12:30 45.15371 3.54028 38254 ft 478 kts 239°
2026-03-24 12:30 45.11557 3.46332 38254 ft 477 kts 239°
2026-03-24 12:31 45.07739 3.38634 38246 ft 478 kts 239°
2026-03-24 12:31 45.03913 3.30956 38247 ft 478 kts 239°
2026-03-24 12:32 45.00081 3.23284 38235 ft 478 kts 239°
2026-03-24 12:32 44.96247 3.15619 38246 ft 478 kts 238°
2026-03-24 12:33 44.92406 3.07966 38246 ft 478 kts 238°
2026-03-24 12:33 44.88555 3.00318 38234 ft 478 kts 238°
2026-03-24 12:34 44.84712 2.92641 38235 ft 479 kts 240°
2026-03-24 12:34 44.81083 2.84795 38237 ft 478 kts 241°
2026-03-24 12:35 44.77472 2.76946 38251 ft 478 kts 241°
2026-03-24 12:36 44.72032 2.65204 38257 ft 477 kts 240°
2026-03-24 12:36 44.68408 2.57388 38253 ft 477 kts 240°
2026-03-24 12:37 44.64778 2.49587 38254 ft 477 kts 240°
2026-03-24 12:37 44.61143 2.41792 38256 ft 477 kts 240°
2026-03-24 12:38 44.57498 2.34009 38269 ft 477 kts 240°
2026-03-24 12:38 44.53853 2.26251 38251 ft 476 kts 240°
2026-03-24 12:39 44.50212 2.18493 38246 ft 477 kts 240°
2026-03-24 12:39 44.46559 2.10749 38259 ft 476 kts 240°
2026-03-24 12:40 44.42903 2.03018 38258 ft 477 kts 240°
2026-03-24 12:40 44.39242 1.95293 38265 ft 477 kts 239°
2026-03-24 12:41 44.35567 1.87568 38259 ft 477 kts 239°
2026-03-24 12:41 44.31885 1.79849 38257 ft 477 kts 239°
2026-03-24 12:42 44.28240 1.72118 38265 ft 477 kts 240°
2026-03-24 12:42 44.24662 1.64338 38267 ft 476 kts 240°
2026-03-24 12:43 44.21087 1.56577 38270 ft 476 kts 240°
2026-03-24 12:43 44.17505 1.48818 38269 ft 476 kts 240°
2026-03-24 12:44 44.13922 1.41076 38265 ft 476 kts 240°
2026-03-24 12:44 44.10325 1.33325 38266 ft 477 kts 240°
2026-03-24 12:45 44.06723 1.25574 38266 ft 477 kts 240°
2026-03-24 12:45 44.03130 1.17836 38262 ft 477 kts 240°
2026-03-24 12:46 43.99510 1.10107 38260 ft 477 kts 239°
2026-03-24 12:46 43.95876 1.02409 38271 ft 476 kts 239°
2026-03-24 12:47 43.92276 0.94698 38263 ft 476 kts 239°
2026-03-24 12:47 43.88504 0.87142 38255 ft 479 kts 230°
2026-03-24 12:48 43.83644 0.80806 38270 ft 480 kts 222°
2026-03-24 12:48 43.78625 0.74698 38266 ft 479 kts 223°
2026-03-24 12:49 43.73643 0.68579 38265 ft 479 kts 223°
2026-03-24 12:49 43.68667 0.62464 38268 ft 479 kts 223°
2026-03-24 12:50 43.63684 0.56351 38267 ft 479 kts 223°
2026-03-24 12:50 43.58692 0.50232 38266 ft 479 kts 222°
2026-03-24 12:51 43.53700 0.44134 38267 ft 480 kts 222°
2026-03-24 12:51 43.48696 0.38053 38273 ft 480 kts 222°
2026-03-24 12:52 43.43698 0.31963 38264 ft 480 kts 222°
2026-03-24 12:52 43.38693 0.25889 38258 ft 480 kts 222°
2026-03-24 12:53 43.33675 0.19830 38258 ft 480 kts 222°
2026-03-24 12:53 43.28665 0.13779 38257 ft 480 kts 222°
2026-03-24 12:54 43.23761 0.07539 38259 ft 481 kts 224°
2026-03-24 12:54 43.18924 0.01214 38258 ft 481 kts 224°
2026-03-24 12:55 43.14074 -0.05109 38259 ft 481 kts 224°
2026-03-24 12:55 43.09222 -0.11407 38255 ft 481 kts 224°
2026-03-24 12:56 43.04359 -0.17685 38261 ft 481 kts 224°
2026-03-24 12:56 42.99501 -0.23951 38248 ft 480 kts 224°
2026-03-24 12:57 42.94636 -0.30206 38249 ft 481 kts 223°
2026-03-24 12:57 42.89769 -0.36458 38248 ft 481 kts 223°
2026-03-24 12:58 42.84880 -0.42716 38243 ft 482 kts 223°
2026-03-24 12:58 42.79992 -0.48961 38224 ft 481 kts 223°
2026-03-24 12:59 42.75139 -0.55150 38234 ft 481 kts 223°
2026-03-24 12:59 42.70248 -0.61362 38225 ft 481 kts 223°
2026-03-24 13:00 42.65333 -0.67604 38215 ft 481 kts 223°
2026-03-24 13:00 42.61271 -0.72749 38216 ft 481 kts 223°
2026-03-24 13:01 42.56378 -0.78929 38233 ft 480 kts 222°
2026-03-24 13:01 42.51488 -0.85094 38240 ft 480 kts 222°
2026-03-24 13:02 42.46597 -0.91250 38232 ft 480 kts 222°
2026-03-24 13:02 42.41704 -0.97397 38235 ft 480 kts 222°
2026-03-24 13:03 42.36810 -1.03525 38236 ft 479 kts 222°
2026-03-24 13:03 42.31906 -1.09646 38250 ft 480 kts 222°
2026-03-24 13:04 42.27002 -1.15761 38239 ft 480 kts 222°
2026-03-24 13:04 42.22105 -1.21859 38241 ft 479 kts 222°
2026-03-24 13:05 42.17197 -1.27956 38245 ft 480 kts 221°
2026-03-24 13:05 42.12279 -1.34016 38251 ft 479 kts 221°
2026-03-24 13:06 42.07363 -1.40083 38247 ft 479 kts 221°
2026-03-24 13:06 42.02449 -1.46139 38242 ft 478 kts 221°
2026-03-24 13:07 41.97535 -1.52177 38238 ft 478 kts 221°
2026-03-24 13:07 41.92619 -1.58214 38237 ft 478 kts 221°
2026-03-24 13:08 41.87712 -1.64241 38238 ft 478 kts 221°
2026-03-24 13:08 41.82798 -1.70254 38226 ft 478 kts 221°
2026-03-24 13:09 41.77873 -1.76259 38226 ft 478 kts 220°
2026-03-24 13:09 41.72950 -1.82239 38220 ft 477 kts 220°
2026-03-24 13:10 41.68031 -1.88221 38229 ft 478 kts 220°
2026-03-24 13:10 41.63106 -1.94194 38219 ft 478 kts 220°
2026-03-24 13:11 41.58171 -2.00163 38219 ft 478 kts 220°
2026-03-24 13:11 41.53245 -2.06116 38218 ft 478 kts 220°
2026-03-24 13:12 41.48321 -2.12051 38216 ft 478 kts 220°
2026-03-24 13:12 41.43384 -2.17996 38217 ft 477 kts 220°
2026-03-24 13:13 41.38447 -2.23914 38217 ft 477 kts 220°
2026-03-24 13:13 41.33520 -2.29817 38215 ft 477 kts 220°
2026-03-24 13:14 41.28574 -2.35713 38226 ft 477 kts 219°
2026-03-24 13:14 41.23629 -2.41586 38218 ft 477 kts 219°
2026-03-24 13:15 41.18720 -2.47413 38229 ft 476 kts 219°
2026-03-24 13:15 41.13783 -2.53276 38230 ft 476 kts 219°
2026-03-24 13:16 41.08811 -2.59173 38229 ft 476 kts 219°
2026-03-24 13:16 41.03869 -2.65011 38233 ft 476 kts 219°
2026-03-24 13:17 40.98963 -2.70807 38235 ft 476 kts 219°
2026-03-24 13:17 40.93983 -2.76661 38233 ft 476 kts 219°
2026-03-24 13:18 40.89075 -2.82436 38239 ft 476 kts 219°
2026-03-24 13:18 40.84122 -2.88238 38247 ft 476 kts 219°
2026-03-24 13:19 40.79175 -2.94027 38242 ft 475 kts 218°
2026-03-24 13:19 40.74219 -2.99810 38247 ft 475 kts 218°
2026-03-24 13:20 40.69261 -3.05582 38248 ft 475 kts 218°
2026-03-24 13:20 40.64300 -3.11338 38254 ft 475 kts 218°
2026-03-24 13:21 40.59344 -3.17091 38257 ft 475 kts 218°
2026-03-24 13:21 40.54392 -3.22821 38257 ft 475 kts 218°
2026-03-24 13:22 40.49432 -3.28546 38256 ft 474 kts 218°
2026-03-24 13:22 40.44467 -3.34260 38256 ft 474 kts 218°
2026-03-24 13:23 40.39504 -3.39971 38263 ft 474 kts 218°
2026-03-24 13:23 40.34541 -3.45672 38261 ft 474 kts 218°
2026-03-24 13:24 40.29579 -3.51349 38275 ft 474 kts 217°
2026-03-24 13:24 40.24615 -3.57024 38282 ft 473 kts 217°
2026-03-24 13:25 40.19658 -3.62678 38281 ft 473 kts 217°
2026-03-24 13:25 40.14698 -3.68324 38286 ft 473 kts 217°
2026-03-24 13:26 40.09625 -3.73745 38276 ft 469 kts 210°
2026-03-24 13:26 40.04224 -3.78508 38267 ft 468 kts 209°
2026-03-24 13:27 39.98811 -3.83252 38252 ft 469 kts 209°
2026-03-24 13:27 39.93402 -3.87994 38251 ft 468 kts 209°
2026-03-24 13:28 39.87993 -3.92730 38252 ft 469 kts 209°
2026-03-24 13:28 39.82574 -3.97467 38246 ft 469 kts 209°
2026-03-24 13:29 39.77152 -4.02199 38245 ft 469 kts 209°
2026-03-24 13:29 39.71736 -4.06920 38241 ft 468 kts 208°
2026-03-24 13:30 39.66321 -4.11594 38241 ft 468 kts 208°
2026-03-24 13:30 39.60897 -4.16280 38243 ft 468 kts 208°
2026-03-24 13:31 39.55489 -4.20973 38238 ft 468 kts 208°
2026-03-24 13:31 39.50082 -4.25652 38225 ft 467 kts 208°
2026-03-24 13:32 39.44675 -4.30315 38229 ft 466 kts 208°
2026-03-24 13:32 39.39273 -4.34967 38231 ft 466 kts 208°
2026-03-24 13:33 39.33887 -4.39625 38227 ft 466 kts 208°
2026-03-24 13:33 39.28490 -4.44274 38223 ft 466 kts 208°
2026-03-24 13:34 39.23101 -4.48880 38147 ft 461 kts 208°
2026-03-24 13:34 39.20417 -4.51178 37182 ft 467 kts 208°
2026-03-24 13:34 39.17672 -4.53518 35988 ft 479 kts 208°
2026-03-24 13:34 39.14881 -4.55898 35196 ft 481 kts 208°
2026-03-24 13:35 39.12105 -4.58272 34715 ft 475 kts 208°
2026-03-24 13:35 39.09365 -4.60605 34247 ft 469 kts 207°
2026-03-24 13:35 39.06692 -4.62875 33739 ft 464 kts 207°
2026-03-24 13:35 39.03984 -4.65173 33250 ft 458 kts 208°
2026-03-24 13:36 39.01377 -4.67390 32778 ft 452 kts 208°
2026-03-24 13:36 38.98739 -4.69638 32325 ft 447 kts 208°
2026-03-24 13:36 38.96191 -4.71802 31869 ft 444 kts 208°
2026-03-24 13:36 38.93579 -4.74011 31395 ft 442 kts 209°
2026-03-24 13:37 38.91025 -4.76176 30936 ft 440 kts 209°
2026-03-24 13:37 38.88507 -4.78311 30501 ft 438 kts 210°
2026-03-24 13:37 38.85975 -4.80449 30028 ft 435 kts 210°
2026-03-24 13:38 38.80930 -4.84698 29010 ft 432 kts 209°
2026-03-24 13:38 38.78424 -4.86807 28532 ft 429 kts 209°
2026-03-24 13:38 38.75941 -4.88898 28067 ft 426 kts 209°
2026-03-24 13:38 38.73472 -4.90978 27621 ft 424 kts 209°
2026-03-24 13:39 38.71014 -4.93050 27166 ft 422 kts 209°
2026-03-24 13:39 38.68565 -4.95110 26686 ft 420 kts 209°
2026-03-24 13:39 38.66126 -4.97155 26223 ft 419 kts 209°
2026-03-24 13:39 38.63697 -4.99196 25788 ft 417 kts 209°
2026-03-24 13:40 38.61283 -5.01221 25335 ft 414 kts 209°
2026-03-24 13:40 38.58872 -5.03239 24885 ft 413 kts 209°
2026-03-24 13:40 38.56467 -5.05241 24403 ft 413 kts 209°
2026-03-24 13:40 38.54067 -5.07249 23939 ft 412 kts 209°
2026-03-24 13:41 38.51677 -5.09258 23422 ft 410 kts 210°
2026-03-24 13:41 38.49422 -5.11477 22901 ft 408 kts 218°
2026-03-24 13:41 38.47290 -5.13829 22407 ft 403 kts 218°
2026-03-24 13:41 38.45182 -5.16166 21924 ft 399 kts 218°
2026-03-24 13:42 38.43102 -5.18473 21452 ft 394 kts 218°
2026-03-24 13:42 38.41041 -5.20749 20996 ft 389 kts 218°
2026-03-24 13:42 38.39007 -5.22992 20575 ft 384 kts 218°
2026-03-24 13:42 38.37004 -5.25201 20155 ft 379 kts 218°
2026-03-24 13:43 38.35024 -5.27386 19743 ft 374 kts 218°
2026-03-24 13:43 38.33697 -5.28845 19473 ft 371 kts 218°
2026-03-24 13:43 38.31127 -5.31664 18942 ft 365 kts 218°
2026-03-24 13:43 38.29833 -5.33081 18690 ft 362 kts 218°
2026-03-24 13:44 38.27932 -5.35163 18295 ft 358 kts 218°
2026-03-24 13:44 38.26057 -5.37208 17888 ft 353 kts 218°
2026-03-24 13:44 38.24213 -5.39230 17500 ft 348 kts 218°
2026-03-24 13:44 38.22420 -5.41199 17127 ft 343 kts 218°
2026-03-24 13:45 38.20625 -5.43171 16768 ft 338 kts 218°
2026-03-24 13:45 38.18848 -5.45116 16437 ft 337 kts 218°
2026-03-24 13:45 38.17050 -5.47085 16107 ft 336 kts 218°
2026-03-24 13:45 38.15282 -5.49019 15786 ft 335 kts 218°
2026-03-24 13:46 38.13540 -5.50921 15466 ft 334 kts 218°
2026-03-24 13:46 38.11778 -5.52839 15135 ft 334 kts 219°
2026-03-24 13:46 38.09986 -5.54793 14794 ft 335 kts 219°
2026-03-24 13:46 38.08218 -5.56721 14459 ft 334 kts 219°
2026-03-24 13:47 38.06478 -5.58616 14131 ft 335 kts 219°
2026-03-24 13:47 38.04709 -5.60540 13768 ft 333 kts 219°
2026-03-24 13:47 38.02943 -5.62461 13400 ft 328 kts 219°
2026-03-24 13:47 38.01249 -5.64299 13067 ft 322 kts 219°
2026-03-24 13:48 37.99538 -5.66155 12733 ft 317 kts 219°
2026-03-24 13:48 37.97895 -5.67936 12411 ft 312 kts 219°
2026-03-24 13:48 37.96231 -5.69739 12081 ft 310 kts 219°
2026-03-24 13:48 37.94592 -5.71515 11756 ft 310 kts 219°
2026-03-24 13:49 37.92951 -5.73291 11455 ft 310 kts 219°
2026-03-24 13:49 37.91326 -5.75050 11148 ft 311 kts 219°
2026-03-24 13:49 37.89678 -5.76833 10825 ft 312 kts 220°
2026-03-24 13:49 37.88026 -5.78616 10507 ft 313 kts 220°
2026-03-24 13:50 37.86370 -5.80405 10195 ft 313 kts 220°
2026-03-24 13:50 37.84723 -5.82182 9920 ft 307 kts 220°
2026-03-24 13:50 37.83118 -5.83915 9718 ft 299 kts 220°
2026-03-24 13:50 37.81546 -5.85609 9357 ft 296 kts 220°
2026-03-24 13:51 37.79982 -5.87296 8962 ft 295 kts 220°
2026-03-24 13:51 37.78420 -5.88977 8614 ft 295 kts 220°
2026-03-24 13:51 37.76863 -5.90653 8345 ft 293 kts 220°
2026-03-24 13:51 37.75313 -5.92321 8022 ft 293 kts 220°
2026-03-24 13:52 37.73745 -5.93966 7676 ft 292 kts 217°
2026-03-24 13:52 37.72152 -5.95555 7355 ft 292 kts 218°
2026-03-24 13:52 37.70585 -5.97175 7035 ft 290 kts 219°
2026-03-24 13:52 37.69533 -5.98297 6825 ft 289 kts 219°
2026-03-24 13:53 37.68013 -5.99954 6491 ft 288 kts 220°
2026-03-24 13:53 37.66507 -6.01623 6111 ft 287 kts 220°
2026-03-24 13:53 37.65020 -6.03294 5783 ft 285 kts 220°
2026-03-24 13:53 37.63556 -6.04962 5553 ft 283 kts 220°
2026-03-24 13:54 37.62120 -6.06648 5392 ft 281 kts 221°
2026-03-24 13:54 37.60639 -6.08263 5251 ft 281 kts 216°
2026-03-24 13:54 37.59059 -6.09683 5066 ft 278 kts 210°
2026-03-24 13:54 37.57402 -6.10904 4908 ft 275 kts 207°
2026-03-24 13:55 37.55747 -6.12140 4337 ft 278 kts 198°
2026-03-24 13:55 37.53879 -6.12429 4103 ft 267 kts 174°
2026-03-24 13:55 37.52051 -6.12122 3724 ft 264 kts 169°
2026-03-24 13:55 37.50241 -6.11770 3178 ft 263 kts 169°
2026-03-24 13:56 37.48427 -6.11585 2692 ft 260 kts 175°
2026-03-24 13:56 37.46640 -6.11534 2243 ft 254 kts 176°
2026-03-24 13:56 37.44916 -6.11514 2000 ft 240 kts 174°
2026-03-24 13:56 37.43365 -6.11070 1932 ft 220 kts 146°
2026-03-24 13:57 37.42267 -6.09889 1939 ft 199 kts 126°
2026-03-24 13:57 37.41724 -6.08427 1991 ft 175 kts 99°
2026-03-24 13:57 37.41678 -6.06982 1980 ft 155 kts 88°
2026-03-24 13:57 37.41718 -6.05770 1945 ft 126 kts 90°
2026-03-24 13:58 37.41731 -6.04692 1942 ft 123 kts 90°
2026-03-24 13:58 37.41737 -6.03611 1950 ft 124 kts 90°
2026-03-24 13:58 37.41742 -6.02522 1845 ft 124 kts 90°
2026-03-24 13:58 37.41747 -6.01456 1723 ft 122 kts 90°
2026-03-24 13:59 37.41751 -6.00392 1560 ft 122 kts 89°
2026-03-24 13:59 37.41755 -5.99321 1364 ft 122 kts 89°
2026-03-24 13:59 37.41758 -5.98245 1205 ft 123 kts 91°
2026-03-24 13:59 37.41761 -5.97176 1047 ft 122 kts 89°
2026-03-24 14:00 37.41766 -5.96104 885 ft 124 kts 88°
2026-03-24 14:00 37.41770 -5.95025 713 ft 123 kts 89°
2026-03-24 14:00 37.41774 -5.93967 563 ft 121 kts 88°
2026-03-24 14:00 37.41774 -5.92903 396 ft 124 kts 86°
2026-03-24 14:01 37.41790 -5.91847 234 ft 120 kts 88°
2026-03-24 14:01 37.41788 -5.90802 105 ft 117 kts 86°
2026-03-24 14:01 37.41795 -5.89901 104 ft 85 kts 92°
2026-03-24 14:01 37.41795 -5.89336 105 ft 19 kts 89°
2026-03-24 14:02 37.41795 -5.89305 106 ft 4 kts 89°
2026-03-24 14:02 37.41804 -5.89257 106 ft 7 kts 44°
2026-03-24 14:02 37.41859 -5.89274 105 ft 9 kts 342°
2026-03-24 14:02 37.41925 -5.89316 104 ft 12 kts 327°
2026-03-24 14:03 37.41958 -5.89338 104 ft 0 kts 323°
2026-03-24 14:03 37.41959 -5.89339 104 ft 1 kts 323°
2026-03-24 14:03 37.41973 -5.89352 104 ft 4 kts 323°
2026-03-24 14:04 37.42001 -5.89382 104 ft 7 kts 315°
2026-03-24 14:04 37.42039 -5.89427 103 ft 9 kts 315°
2026-03-24 14:04 37.42086 -5.89489 103 ft 11 kts 313°
2026-03-24 14:04 37.42143 -5.89564 102 ft 13 kts 315°
2026-03-24 14:05 37.42209 -5.89649 101 ft 14 kts 314°
2026-03-24 14:05 37.42259 -5.89720 99 ft 7 kts 296°
2026-03-24 14:05 37.42241 -5.89786 101 ft 10 kts 227°
2026-03-24 14:05 37.42206 -5.89831 99 ft 6 kts 224°
2026-03-24 14:06 37.42173 -5.89873 99 ft 7 kts 228°
2026-03-24 14:06 37.42184 -5.89910 99 ft 5 kts 317°
2026-03-24 14:06 37.42204 -5.89935 99 ft 0 kts 314°
2026-03-24 14:06 37.42206 -5.89937 99 ft 1 kts 315°
2026-03-24 14:07 37.42214 -5.89948 99 ft 0 kts 315°
2026-03-24 14:09 37.42214 -5.89947 99 ft 0 kts 315°